Fort Stockton, TX

9:30 PM CDT on June 24, 2017 (GMT -0500)
Fort Stockton-Pecos County

Weather History for KFST - January, 2014

Change the Weather History Date:

Tuesday, January 7, 2014

  Actual Average Record
Temperature  
Mean Temperature 38 °F -  
Max Temperature 57 °F 59 °F 82 °F (2006)
Min Temperature 18 °F 35 °F 14 °F (2017)
Degree Days  
Heating Degree Days 28    
Moisture  
Dew Point 17 °F    
Average Humidity 49    
Maximum Humidity 74    
Minimum Humidity 24    
Precipitation  
Precipitation 0.00 in - - ()
Sea Level Pressure  
Sea Level Pressure 30.23 in    
Wind  
Wind Speed 7 mph (SSE)    
Max Wind Speed 16 mph    
Max Gust Speed -    
Visibility 10 miles    
Events      
Averages and records for this station are not official NWS values.
T = Trace of Precipitation, MM = Missing Value Source: NWS Daily Summary

Daily Weather History Graph

Daily Weather History Graph

Search for Another Location

Airport or City:

Trip Planner

Search our weather history database for the weather conditions in past years. The results will help you decide how hot, cold, wet, or windy it might be!

Date:

Astronomy

Jan. 07, 2014 Rise Set
Actual Time 7:50 AM CST 6:05 PM CST
Civil Twilight 7:24 AM CST 6:32 PM CST
Nautical Twilight 6:54 AM CST 7:01 PM CST
Astronomical Twilight 6:24 AM CST 7:31 PM CST
Moon 12:10 PM CST (1/7) 12:12 AM CST (1/7)
Length of Visible Light 11h 07m
Length of Day
10h 15m
Waxing Crescent, 46% of the Moon is Illuminated
Jan 7
Waxing Crescent
Jan 7
First Quarter
Jan 15
Full
Jan 23
Last Quarter
Jan 30
New

Hourly Weather History & Observations

Time (CST) Temp. Windchill Dew Point Humidity Pressure Visibility Wind Dir Wind Speed Gust Speed Precip Events Conditions
12:53 AM 23.0 °F 12.4 °F 9.0 °F 55% 30.43 in 10.0 mi SSE 10.4 mph - N/A   Clear
1:53 AM 21.9 °F 12.5 °F 10.0 °F 60% 30.41 in 10.0 mi SSE 8.1 mph - N/A   Clear
2:53 AM 21.9 °F 12.5 °F 10.0 °F 60% 30.39 in 10.0 mi South 8.1 mph - N/A   Clear
3:53 AM 19.9 °F - 10.0 °F 65% 30.39 in 10.0 mi Calm Calm - N/A   Clear
4:53 AM 18.0 °F 12.7 °F 10.0 °F 71% 30.38 in 10.0 mi SW 3.5 mph - N/A   Clear
5:53 AM 18.0 °F 9.8 °F 10.9 °F 74% 30.37 in 10.0 mi WSW 5.8 mph - N/A   Clear
6:53 AM 18.0 °F 9.8 °F 10.9 °F 74% 30.36 in 10.0 mi SW 5.8 mph - N/A   Clear
7:53 AM 19.0 °F - 10.9 °F 71% 30.35 in 10.0 mi Calm Calm - N/A   Clear
8:53 AM 25.0 °F - 12.9 °F 60% 30.35 in 10.0 mi Calm Calm - N/A   Clear
9:53 AM 30.0 °F - 12.0 °F 47% 30.34 in 10.0 mi Calm Calm - N/A   Clear
10:53 AM 35.1 °F - 15.1 °F 44% 30.32 in 10.0 mi Calm Calm - N/A   Clear
11:53 AM 42.1 °F - 17.1 °F 37% 30.27 in 10.0 mi Calm Calm - N/A   Clear
12:53 PM 48.0 °F - 19.9 °F 33% 30.19 in 10.0 mi ENE 5.8 mph - N/A   Clear
1:53 PM 52.0 °F - 21.0 °F 30% 30.14 in 10.0 mi ENE 9.2 mph - N/A   Clear
2:53 PM 54.0 °F - 21.0 °F 28% 30.11 in 10.0 mi East 8.1 mph - N/A   Clear
3:53 PM 57.0 °F - 21.0 °F 25% 30.09 in 10.0 mi East 6.9 mph - N/A   Clear
4:53 PM 57.9 °F - 21.0 °F 24% 30.06 in 10.0 mi ENE 5.8 mph - N/A   Clear
5:53 PM 53.1 °F - 21.9 °F 30% 30.06 in 10.0 mi NNE 4.6 mph - N/A   Clear
6:53 PM 50.0 °F - 28.9 °F 44% 30.07 in 10.0 mi South 12.7 mph - N/A   Clear
7:53 PM 45.0 °F 39.7 °F 25.0 °F 46% 30.09 in 10.0 mi SSE 10.4 mph - N/A   Clear
8:53 PM 39.9 °F 32.1 °F 21.0 °F 47% 30.09 in 10.0 mi SSE 13.8 mph - N/A   Clear
9:53 PM 39.0 °F 30.3 °F 21.0 °F 49% 30.08 in 10.0 mi SSE 16.1 mph - N/A   Clear
10:53 PM 37.9 °F 29.6 °F 23.0 °F 55% 30.06 in 10.0 mi SSE 13.8 mph - N/A   Clear
11:53 PM 39.0 °F 31.8 °F 25.0 °F 57% 30.03 in 10.0 mi South 11.5 mph - N/A   Clear